[[{"header":{"parameterUnit":"m.s-1","parameterCategory":1,"la1":30.2991,"la2":30.254,"lo1":-89.0895,"lo2":-89.0444,"dy":0.0017,"dx":0.0017,"nx":28,"ny":28,"refTime":"2024-02-07T03:00:00:Z","depth":0,"parameterNumber":2,"parameterNumberName":"U-component_of_WINDS"},"data":[0,0,0,0,0,0,0,0,0,0,0,0,0,0,0,0,0,0,0,0,0,0,0,0,0,0,0,0,0,0,0,0,0,0,0,0,0,0,0,0,0,0,0,0,0,0,0,0,0,0,0,0,0,0,0,0,0,0,-2.0338,-2.034,0,-2.0496,-2.0497,-2.0499,-2.0563,-2.0563,-2.0562,-2.0562,-2.0723,-2.0728,-2.0732,0,0,0,0,0,0,0,0,0,0,0,0,0,-2.0094,-2.0098,-2.0338,-2.034,-2.0342,-2.0495,-2.0498,-2.05,-2.0563,-2.0563,-2.0562,-2.0562,-2.0722,-2.0727,-2.0733,0,0,0,0,0,0,0,0,0,0,0,0,0,-2.022,-2.0099,-2.0338,-2.0392,-2.0399,-2.0495,-2.0498,-2.05,-2.0563,-2.0563,-2.0562,-2.0562,-2.072,-2.0726,-2.0733,-2.0787,0,0,-2.0755,-2.0758,0,0,0,0,0,0,0,0,-2.0213,-2.0229,-2.0382,-2.0389,-2.0396,-2.0509,-2.0471,-2.0596,-2.0563,-2.0501,-2.0562,-2.0561,-2.0652,-2.0665,-2.0696,-2.0795,-2.0802,-2.0755,-2.0759,-2.0762,-2.0764,0,0,0,0,0,0,0,-2.0204,-2.0223,-2.0401,-2.0384,-2.0393,-2.0409,-2.0427,-2.0495,-2.0578,-2.0506,-2.0511,-2.0529,-2.0656,-2.0689,-2.07,-2.0804,-2.0755,-2.0761,-2.0765,-2.0768,-2.0957,-2.0957,0,0,0,0,0,0,-2.0186,-2.0215,-2.0396,-2.0405,-2.0301,-2.0414,-2.0433,-2.0473,-2.0577,-2.0592,-2.0529,-2.0531,-2.0677,-2.0692,-2.0706,-2.0776,-2.0762,-2.0769,-2.0773,-2.0956,-2.0957,-2.0958,0,0,0,0,0,0,-2.0181,-2.0202,-2.0389,-2.0312,-2.0337,-2.0419,-2.0463,-2.0477,-2.051,-2.0595,-2.061,-2.0547,-2.0677,-2.0696,-2.0767,-2.0782,-2.0772,-2.0778,-2.0955,-2.0956,-2.0957,-2.0917,0,0,0,0,0,0,-2.0174,-2.0199,-2.022,-2.0312,-2.0341,-2.0447,-2.0464,-2.048,-2.0521,-2.0526,-2.0615,-2.063,-2.0678,-2.0756,-2.0774,-2.0792,-2.0784,-2.0954,-2.0955,-2.0957,-2.0917,-2.0916,-2.0916,0,0,0,0,0,-2.0165,-2.0202,-2.0221,-2.0242,-2.0368,-2.0448,-2.0464,-2.0519,-2.0522,-2.0544,-2.0599,-2.0627,-2.0778,-2.0763,-2.0783,-2.0804,-2.0953,-2.0955,-2.0957,-2.0917,-2.0916,-2.0916,0,0,0,0,0,0,-2.011,-2.0215,-2.0237,-2.0306,-2.0367,-2.0458,-2.0488,-2.0517,-2.0579,-2.058,-2.0646,-2.0666,-2.0731,-2.0775,-2.0756,-2.0862,-2.0868,-2.0874,-2.0831,-2.0831,-2.083,-2.0818,-2.0789,0,0,0,0,0,-2.0107,-2.0162,-2.0251,-2.0303,-2.0333,-2.0405,-2.0441,-2.0478,-2.0545,-2.0571,-2.0631,-2.0695,-2.0757,-2.0797,-2.0858,-2.0924,-2.0945,-2.0948,-2.0948,-2.0947,-2.0951,-2.099,-2.0993,-2.0964,-2.0964,-2.0964,0,0,-2.0099,-2.0163,-2.0194,-2.0293,-2.0346,-2.0402,-2.0426,-2.0484,-2.0527,-2.058,-2.0651,-2.0697,-2.0773,-2.0841,-2.0875,-2.088,-2.0964,-2.0949,-2.0948,-2.0953,-2.0992,-2.0995,-2.0997,-2.0965,-2.0965,-2.0965,0,0,-2.0114,-2.0168,-2.0217,-2.0269,-2.0348,-2.0396,-2.0408,-2.0495,-2.0528,-2.06,-2.0641,-2.0693,-2.0799,-2.0851,-2.0891,-2.0928,-2.0956,-2.0946,-2.0943,-2.098,-2.0982,-2.0985,-2.0998,-2.1002,-2.095,-2.095,-2.095,0,-2.0094,-2.018,-2.0239,-2.0295,-2.0338,-2.0389,-2.044,-2.0488,-2.0583,-2.0611,-2.0616,-2.075,-2.0805,-2.0887,-2.0895,-2.0927,-2.0942,-2.0935,-2.0977,-2.098,-2.0983,-2.0996,-2.1001,-2.0948,-2.0949,-2.0949,-2.0949,0,-2.0152,-2.0212,-2.0242,-2.0333,-2.0379,-2.0433,-2.05,-2.054,-2.0573,-2.0621,-2.0694,-2.0762,-2.0838,-2.0861,-2.0894,-2.0948,-2.0949,-2.0964,-2.0971,-2.0983,-2.0997,-2.1002,-2.0946,-2.0946,-2.0947,-2.0947,0,0,-2.0136,-2.0259,-2.027,-2.0312,-2.0403,-2.0451,-2.0507,-2.0582,-2.0615,-2.0679,-2.0728,-2.0817,-2.0833,-2.0879,-2.0918,-2.0951,-2.0976,-2.0963,-2.0966,-2.0963,-2.104,-2.1027,-2.1032,-2.0996,-2.0997,-2.0998,-2.1034,0,-2.0163,-2.0265,-2.032,-2.04,-2.0455,-2.0506,-2.0555,-2.0617,-2.0663,-2.0718,-2.0769,-2.0831,-2.0847,-2.0875,-2.091,-2.0965,-2.0992,-2.0964,-2.1042,-2.1044,-2.1021,-2.1039,-2.1026,-2.1056,-2.104,-2.1041,-2.1041,0,-2.0208,-2.0271,-2.0356,-2.0442,-2.0468,-2.0511,-2.0585,-2.0636,-2.0708,-2.0739,-2.0791,-2.0831,-2.0893,-2.0896,-2.0982,-2.0962,-2.0997,-2.103,-2.1032,-2.1041,-2.1043,-2.1048,-2.1068,-2.1072,-2.105,-2.1049,-2.1049,0,-2.0187,-2.0295,-2.0359,-2.0394,-2.0496,-2.0525,-2.0569,-2.064,-2.0682,-2.0747,-2.0775,-2.0846,-2.0885,-2.094,-2.0998,-2.0994,-2.1079,-2.1086,-2.1107,-2.1105,-2.1121,-2.112,-2.1146,-2.1145,-2.1145,-2.1145,-2.1145,0,-2.0211,-2.0261,-2.0352,-2.0391,-2.0449,-2.0512,-2.0568,-2.0616,-2.0679,-2.0729,-2.0778,-2.0824,-2.0898,-2.0954,-2.1,-2.1065,-2.1082,-2.111,-2.1121,-2.1105,-2.1102,-2.1129,-2.1128,-2.1146,-2.1146,-2.1146,-2.1145,0,-2.0198,-2.026,-2.0334,-2.0425,-2.0449,-2.0488,-2.0566,-2.0607,-2.0656,-2.0719,-2.0738,-2.0816,-2.0884,-2.0948,-2.1039,-2.107,-2.1135,-2.115,-2.1111,-2.1117,-2.1134,-2.1131,-2.1179,-2.1188,-2.118,-2.118,-2.118,0,-2.0209,-2.0249,-2.0344,-2.0381,-2.0424,-2.0483,-2.0526,-2.0591,-2.0634,-2.0719,-2.075,-2.0822,-2.0883,-2.099,-2.1055,-2.1125,-2.1142,-2.1154,-2.1153,-2.1136,-2.1142,-2.1139,-2.1143,-2.1152,-2.1152,-2.1152,-2.1152,0,-2.0222,-2.0251,-2.0311,-2.0383,-2.0433,-2.0493,-2.0554,-2.0582,-2.0658,-2.0704,-2.0774,-2.0822,-2.0915,-2.0986,-2.1064,-2.111,-2.1144,-2.1152,-2.116,-2.1144,-2.1119,-2.1133,-2.1108,-2.115,-2.115,-2.115,-2.1151,-2.1151,-2.0221,-2.0259,-2.0332,-2.0398,-2.0451,-2.0507,-2.055,-2.0605,-2.0665,-2.0745,-2.078,-2.0852,-2.0924,-2.1032,-2.1078,-2.1135,-2.1142,-2.1155,-2.1158,-2.116,-2.1156,-2.1111,-2.115,-2.115,-2.115,-2.115,-2.115,0,-2.0237,-2.0286,-2.0346,-2.043,-2.0482,-2.051,-2.0579,-2.0621,-2.0683,-2.0747,-2.0806,-2.0888,-2.0957,-2.1028,-2.1102,-2.1134,-2.1152,-2.1151,-2.1149,-2.116,-2.1146,-2.1131,-2.1136,-2.1136,-2.1136,-2.1136,-2.1136,-2.1136,-2.0251,-2.0316,-2.0354,-2.0446,-2.0496,-2.0566,-2.0604,-2.0656,-2.0708,-2.0796,-2.0854,-2.09,-2.0967,-2.1046,-2.1112,-2.1131,-2.1156,-2.1151,-2.1174,-2.116,-2.116,-2.1161,-2.1147,-2.1156,-2.1156,-2.1184,-2.1184,-2.1184]},{"header":{"parameterUnit":"m.s-1","parameterCategory":1,"la1":30.2991,"la2":30.254,"lo1":-89.0895,"lo2":-89.0444,"dy":0.0017,"dx":0.0017,"nx":28,"ny":28,"refTime":"2024-02-07T03:00:00:Z","depth":0,"parameterNumber":3,"parameterNumberName":"V-component_of_WINDS"},"data":[0,0,0,0,0,0,0,0,0,0,0,0,0,0,0,0,0,0,0,0,0,0,0,0,0,0,0,0,0,0,0,0,0,0,0,0,0,0,0,0,0,0,0,0,0,0,0,0,0,0,0,0,0,0,0,0,0,0,3.2468,3.2471,0,3.2758,3.2762,3.2765,3.2848,3.2847,3.2845,3.2844,3.3145,3.3154,3.3163,0,0,0,0,0,0,0,0,0,0,0,0,0,3.1991,3.1999,3.2468,3.2471,3.2475,3.2758,3.2762,3.2766,3.2849,3.2847,3.2845,3.2843,3.3142,3.3153,3.3164,0,0,0,0,0,0,0,0,0,0,0,0,0,3.2231,3.2002,3.2467,3.255,3.2561,3.2757,3.2762,3.2767,3.2849,3.2847,3.2844,3.2842,3.3138,3.3152,3.3166,3.3301,0,0,3.3209,3.3215,0,0,0,0,0,0,0,0,3.2218,3.2249,3.2535,3.2545,3.2557,3.2765,3.2704,3.2946,3.285,3.274,3.2844,3.2841,3.302,3.3044,3.3104,3.3315,3.3328,3.321,3.3219,3.3225,3.3229,0,0,0,0,0,0,0,3.2201,3.2237,3.2583,3.2539,3.2552,3.2575,3.2607,3.275,3.289,3.2749,3.2756,3.2789,3.3026,3.309,3.3112,3.3333,3.321,3.3223,3.3231,3.3237,3.3673,3.3676,0,0,0,0,0,0,3.2169,3.2222,3.2574,3.2592,3.2378,3.2586,3.2621,3.27,3.2889,3.2915,3.2791,3.2792,3.3067,3.3095,3.3122,3.3296,3.3225,3.3238,3.3247,3.367,3.3674,3.3677,0,0,0,0,0,0,3.2159,3.22,3.2562,3.2409,3.2457,3.2596,3.2685,3.2707,3.2771,3.292,3.2946,3.283,3.3066,3.3102,3.3257,3.3307,3.3245,3.3258,3.3666,3.3671,3.3675,3.3641,0,0,0,0,0,0,3.2145,3.2195,3.2247,3.2409,3.2465,3.2689,3.2688,3.2715,3.2795,3.2799,3.2964,3.2989,3.3067,3.3235,3.3271,3.3326,3.3269,3.3663,3.3668,3.3674,3.3639,3.3644,3.3649,0,0,0,0,0,3.2127,3.2226,3.2249,3.2291,3.2532,3.2692,3.2724,3.2811,3.2799,3.2853,3.2949,3.2983,3.3295,3.325,3.3291,3.3351,3.366,3.3667,3.3673,3.3636,3.3643,3.3649,0,0,0,0,0,0,3.2067,3.2249,3.2276,3.243,3.2545,3.2706,3.2776,3.2815,3.2937,3.2936,3.304,3.3076,3.3224,3.3303,3.3249,3.3494,3.3479,3.3494,3.3436,3.3444,3.3449,3.3428,3.3281,0,0,0,0,0,3.2071,3.2184,3.2338,3.2459,3.2515,3.2636,3.2709,3.2766,3.289,3.2939,3.3046,3.3166,3.3292,3.3372,3.3496,3.365,3.3689,3.3712,3.3717,3.372,3.3733,3.3824,3.3836,3.3699,3.3699,3.3699,0,0,3.2082,3.2195,3.2261,3.245,3.2546,3.2663,3.2676,3.2799,3.2888,3.2958,3.3111,3.3193,3.3334,3.349,3.3564,3.356,3.3779,3.3729,3.3731,3.3742,3.3832,3.3845,3.3856,3.3704,3.3703,3.3702,0,0,3.2161,3.2257,3.237,3.2466,3.261,3.269,3.2717,3.2873,3.293,3.3084,3.314,3.3248,3.3461,3.356,3.3638,3.3757,3.3795,3.3795,3.3822,3.3909,3.392,3.393,3.3975,3.3989,3.3806,3.3806,3.3806,0,3.2157,3.2334,3.2423,3.2544,3.2627,3.2695,3.2812,3.29,3.3078,3.3135,3.3128,3.3399,3.3498,3.3679,3.3708,3.3768,3.3805,3.3777,3.3911,3.3922,3.3933,3.3976,3.3993,3.3805,3.3806,3.3806,3.3806,0,3.2322,3.2445,3.2518,3.2688,3.2779,3.2896,3.3006,3.3088,3.3137,3.3218,3.3376,3.3498,3.3649,3.3696,3.3745,3.3885,3.3878,3.389,3.3877,3.3943,3.3986,3.4004,3.3804,3.3805,3.3805,3.3805,0,0,3.2372,3.2589,3.2615,3.2694,3.2859,3.2956,3.3078,3.3225,3.3294,3.3415,3.3521,3.3701,3.3713,3.3802,3.3864,3.394,3.4029,3.3943,3.3948,3.3956,3.4193,3.4184,3.4202,3.4054,3.4058,3.4061,3.4182,0,3.2474,3.2693,3.2777,3.2957,3.3073,3.314,3.3247,3.3361,3.344,3.3551,3.364,3.3766,3.3772,3.3826,3.3904,3.4001,3.4078,3.3994,3.4157,3.4162,3.4121,3.4224,3.4216,3.4324,3.4199,3.4202,3.4204,0,3.2622,3.2743,3.2934,3.3086,3.3138,3.3232,3.3375,3.3479,3.3611,3.3664,3.3763,3.3821,3.3954,3.3932,3.4118,3.4058,3.413,3.4188,3.4195,3.4215,3.4188,3.4249,3.436,3.4377,3.4231,3.4229,3.4227,0,3.2641,3.2853,3.2995,3.3059,3.3241,3.3306,3.3384,3.3514,3.3597,3.3722,3.3777,3.3916,3.3992,3.41,3.4194,3.4169,3.4372,3.4358,3.4422,3.442,3.4463,3.4459,3.4589,3.4506,3.4505,3.4505,3.4505,0,3.2747,3.2862,3.3006,3.3093,3.3225,3.3322,3.345,3.3533,3.3648,3.3755,3.3822,3.3921,3.4038,3.4154,3.4228,3.4373,3.4406,3.4454,3.4473,3.4449,3.4444,3.4499,3.4495,3.451,3.4509,3.4508,3.4507,0,3.2792,3.2892,3.3052,3.321,3.3253,3.3343,3.348,3.3569,3.3651,3.3786,3.3823,3.3953,3.4092,3.4197,3.4377,3.4427,3.4582,3.46,3.4537,3.4547,3.4606,3.46,3.4778,3.4807,3.4701,3.4702,3.4703,0,3.2853,3.2943,3.3111,3.3186,3.3264,3.3385,3.3471,3.3571,3.3657,3.3815,3.3885,3.4029,3.4149,3.4368,3.448,3.4619,3.4643,3.4696,3.4665,3.4639,3.4647,3.4641,3.4652,3.4701,3.4701,3.4702,3.4702,0,3.2953,3.2999,3.3118,3.3256,3.3355,3.3469,3.3584,3.3642,3.3763,3.3858,3.4,3.4093,3.4278,3.442,3.4571,3.4654,3.47,3.4711,3.4734,3.4712,3.4672,3.4697,3.4551,3.4707,3.4706,3.4706,3.4706,3.4706,3.301,3.3094,3.3225,3.3357,3.3453,3.356,3.3651,3.3745,3.3865,3.4022,3.4074,3.4222,3.4355,3.4561,3.4646,3.4765,3.4765,3.4797,3.4806,3.4813,3.4813,3.4651,3.4793,3.4793,3.4793,3.4793,3.4793,0,3.3115,3.3203,3.3323,3.3481,3.3585,3.3617,3.3746,3.3832,3.3961,3.4079,3.4196,3.4362,3.4501,3.4624,3.4769,3.484,3.4865,3.4875,3.4872,3.4891,3.4803,3.477,3.4853,3.4853,3.4853,3.4853,3.4853,3.4853,3.3182,3.3326,3.3387,3.3581,3.3669,3.3813,3.3885,3.3984,3.408,3.426,3.4376,3.4455,3.4577,3.4731,3.4861,3.4894,3.4946,3.4951,3.4989,3.4905,3.4897,3.489,3.486,3.4961,3.4961,3.5069,3.507,3.507]}]]